Ifafi, South Africa

2:26 AM SAST on December 18, 2017 (GMT +0200)
Ifafi

Weather History for WFALA - March, 2014

Change the Weather History Date:

Monday, March 31, 2014

  Actual Average Record
Temperature  
Mean Temperature 66 °F -  
Max Temperature 78 °F - - ()
Min Temperature 55 °F - - ()
Cooling Degree Days 2    
Growing Degree Days 16 (Base 50)    
Moisture  
Dew Point 55 °F    
Average Humidity 68    
Maximum Humidity 100    
Minimum Humidity 41    
Precipitation  
Precipitation 0.00 in - - ()
Sea Level Pressure  
Sea Level Pressure 30.20 in    
Wind  
Wind Speed 5 mph ()    
Max Wind Speed 9 mph    
Max Gust Speed -    
Visibility 6.2 miles    
Events Thunderstorm    
T = Trace of Precipitation, MM = Missing Value Source: Averaged Metar Reports

Daily Weather History Graph

Daily Weather History Graph

Search for Another Location

Airport or City:

Trip Planner

Search our weather history database for the weather conditions in past years. The results will help you decide how hot, cold, wet, or windy it might be!

Date:

Astronomy

Mar. 31, 2014 Rise Set
Actual Time 6:16 AM SAST 6:07 PM SAST
Civil Twilight 5:53 AM SAST 6:30 PM SAST
Nautical Twilight 5:27 AM SAST 6:57 PM SAST
Astronomical Twilight 5:00 AM SAST 7:24 PM SAST
Moon 6:45 AM SAST (3/31) 6:36 PM SAST (3/31)
Length of Visible Light 12h 36m
Length of Day
11h 51m
New Moon, 1% of the Moon is Illuminated
Mar 31
New Moon
Apr 7
First Quarter
Apr 15
Full
Apr 22
Last Quarter
Apr 29
New

Hourly Weather History & Observations

Time (SAST) Temp. Dew Point Humidity Pressure Visibility Wind Dir Wind Speed Gust Speed Precip Events Conditions
12:00 AM 62.6 °F 57.2 °F 82% 30.21 in - West 3.5 mph - N/A   Unknown
1:00 AM 60.8 °F 55.4 °F 82% 30.21 in - ESE 8.1 mph - N/A   Unknown
2:00 AM 60.8 °F 55.4 °F 82% 30.21 in - ESE 5.8 mph - N/A   Unknown
3:00 AM 59.0 °F 55.4 °F 88% 30.21 in - South 5.8 mph - N/A   Unknown
4:00 AM 59.0 °F 55.4 °F 88% 30.21 in - SSE 8.1 mph - N/A   Unknown
5:00 AM 57.2 °F 53.6 °F 88% 30.21 in - Calm Calm - N/A   Unknown
6:00 AM 55.4 °F 55.4 °F 100% 30.21 in - South 3.5 mph - N/A   Clear
7:42 AM 64.4 °F 55.4 °F 73% 30.27 in - Variable 2.3 mph - N/A   Clear
11:00 AM 73.4 °F 57.2 °F 57% 30.27 in 6.2 mi Calm Calm - N/A   Scattered Clouds
12:00 PM 75.2 °F 57.2 °F 53% 30.24 in 6.2 mi North 9.2 mph - N/A   Scattered Clouds
1:00 PM 75.2 °F 55.4 °F 50% 30.21 in 6.2 mi NNE 8.1 mph - N/A   Scattered Clouds
2:00 PM 77.0 °F 53.6 °F 44% 30.18 in 6.2 mi North 6.9 mph - N/A   Scattered Clouds
3:00 PM 78.8 °F 55.4 °F 44% 30.15 in 6.2 mi Variable 6.9 mph - N/A   Scattered Clouds
4:00 PM 78.8 °F 53.6 °F 42% 30.15 in 6.2 mi NNW 8.1 mph - N/A   Scattered Clouds
5:00 PM 77.0 °F 51.8 °F 41% 30.15 in 6.2 mi NW 6.9 mph - N/A   Scattered Clouds
6:00 PM 69.8 °F 53.6 °F 56% 30.15 in 6.2 mi SSW 5.8 mph - N/A   Mostly Cloudy
8:00 PM 66.2 °F 53.6 °F 64% 30.18 in 6.2 mi WSW 6.9 mph - N/A Thunderstorm Thunderstorm
9:00 PM 64.4 °F 53.6 °F 68% 30.18 in 6.2 mi ESE 3.5 mph - N/A   Scattered Clouds
10:00 PM 62.6 °F 55.4 °F 77% 30.21 in 6.2 mi ESE 6.9 mph - N/A   Partly Cloudy
11:00 PM 62.6 °F 57.2 °F 82% 30.21 in - NE 3.5 mph - N/A   Unknown